Regional Weather Roundup
Issued by NWS

Home | Current Version | Previous Version | Graphics & Text | Print | Product List | Glossary On
Versions: 1 2 3 4 5 6 7 8 9 10 11 12 13 14 15 16 17 18 19 20 21 22 23 24 25 26 27 28 29 30 31 32 33 34 35 36 37 38 39 40 41 42 43 44 45 46 47 48 49 50
000
ASUS45 KBOU 022210
RWRCO

WEATHER ROUNDUP FOR COLORADO
NATIONAL WEATHER SERVICE PUEBLO CO
400 PM MDT SUN AUG 02 2015

NOTE: "FAIR" INDICATES FEW OR NO CLOUDS BELOW 12000 FEET WITH NO
SIGNIFICANT WEATHER AND/OR OBSTRUCTIONS TO VISIBILITY.

COZ001>005-013-030-031-022300-
...NORTHWEST COLORADO...

CITY           SKY/WX    TMP DP  RH WIND       PRES   REMARKS
CRAIG          CLOUDY    88  41  19 NW3       30.09F
HAYDEN         CLOUDY    86  37  17 N6        30.12F
MEEKER         CLOUDY    80  46  30 SE6       30.13F
MOUNT WERNER   NOT AVBL
STEAMBOAT SPGS FAIR      87  37  17 W5        30.14F
WALDEN         FAIR      77  34  20 E10       30.27S
$$

COZ006>008-011-022300-
...WEST CENTRAL VALLEYS...

CITY           SKY/WX    TMP DP  RH WIND       PRES   REMARKS
GRAND JUNCTION CLOUDY    79  53  40 SW6       30.05F
MONTROSE       PTSUNNY   72  55  55 SE12      30.16F
EAGLE          PTSUNNY   79  46  31 NE17G25   30.17R
RIFLE          CLOUDY    82  49  31 W17       30.07F
DELTA          NOT AVBL
NUCLA          FAIR      70  57  64 N6        30.19F
$$

COZ017>023-064>068-022300-
...SOUTHWEST COLORADO...

CITY           SKY/WX    TMP DP  RH WIND       PRES   REMARKS
DURANGO        PTSUNNY   79  50  36 SW12G18   30.17S THUNDER
CORTEZ         MOSUNNY   72  59  63 SW8       30.16R
PAGOSA SPRINGS TSTM      61  52  72 NE7       30.27F
TELLURIDE      TSTM      59  56  91 SE8       30.39S
WOLF CREEK PAS NOT AVBL
$$

COZ009-010-012-014-032>034-037-058>063-022300-
...CENTRAL COLORADO...

CITY           SKY/WX    TMP DP  RH WIND       PRES   REMARKS
ASPEN          CLOUDY    70  47  43 E10G17    30.27R THUNDER
BUENA VISTA    FAIR      71  40  32 NE17G31   30.29F
COPPER MTN     CLOUDY    54  37  54 W18G24    30.64S
BERTHOUD PASS  CLOUDY    43  32  65 SE20      30.67F
COTTONWOOD PAS CLOUDY    64  39  39 CALM      30.45S
GUNNISON       CLOUDY    61  52  72 SW3       30.33S
KREMMLING      CLOUDY    79  32  18 S9G21     30.22S
LEADVILLE      LGT RAIN  54  43  66 N15G24    30.46R
MONARCH PASS   CLOUDY    54  36  50 E12       30.69F
SALIDA         PTSUNNY   78  43  28 S7        30.29F
NIWOT RIDGE    NOT AVBL
SUNLIGHT       CLOUDY    63  48  59 CALM      30.52F THUNDER
WILKERSON PASS CLOUDY    45  41  87 NE16      30.59F
$$

COZ069>075-022300-
...SAN LUIS VALLEY/SANGRE DE CRISTO MOUNTAINS...

CITY           SKY/WX    TMP DP  RH WIND       PRES   REMARKS
ALAMOSA        CLOUDY    74  46  36 W14       30.24S
LA VETA PASS   CLOUDY    59  43  55 MISG      30.45F THUNDER
SAGUACHE       CLOUDY    75  45  33 SE6       30.27F
$$

COZ035-036-038>040-022300-
...NORTHERN COLORADO FRONT RANGE...

CITY           SKY/WX    TMP DP  RH WIND       PRES   REMARKS
DENVER INTL AP CLOUDY    81  47  30 SW20G35   30.08R
DMNS CITY PARK NOT AVBL
AURORA         TSTM      66  58  74 S16       30.14R
FRONT RANGE AP PTSUNNY   86  39  19 SW9       30.09
ERIE MUNI ARPT LGT RAIN  75  55  50 E9        30.09R
BOULDER MUN AP FAIR      82  43  24 E6        30.08R
CENTENNIAL     TSTM      72  51  47 CALM      30.19R
BROOMFIELD     CLOUDY    81  43  26 SW14      30.13R THUNDER
LOVELAND       CLOUDY    88  52  29 N12       30.03F
LONGMONT       FAIR      89  50  26 S9        30.08R
$$

COZ041-046-047-076>085-087-088-022300-
...PIKES PEAK/PALMER DIVIDE AND SOUTHERN FOOTHILLS...

CITY           SKY/WX    TMP DP  RH WIND       PRES   REMARKS
COLO. SPRINGS  CLOUDY    85  43  22 S14       30.15F
A. F. ACADEMY  CLOUDY    82  43  24 S16       30.17F
ELLICOTT       FAIR     N/A N/A N/A S8G20     30.13F
FALCON         FAIR      79  44  29 S10       30.22F
FORT CARSON    CLOUDY    86  43  22 S8        30.11F
LIMON          MOSUNNY   89  43  20 SE8G21    30.08F
MONUMENT HILL  NOT AVBL
TRINIDAD       CLOUDY    83  46  27 E8        30.10S
$$

COZ042>045-048>051-090-091-022300-
...NORTHEAST COLORADO...

CITY           SKY/WX    TMP DP  RH WIND       PRES   REMARKS
GREELEY ARPT   CLOUDY    88  55  33 N10       30.02F
AKRON          MOSUNNY   92  43  18 S12G18    30.03F
BURLINGTON     MOSUNNY   92  45  19 SE12      30.01F
WRAY           PTSUNNY   99  41  13 E6        29.95F
STERLING       FAIR      95  48  20 S8        29.96F
HOLYOKE        FAIR      95  41  15 CALM      29.96S
FORT MORGAN    FAIR      94  37  13 S6        30.00F
$$

COZ086-089-092>099-022300-
...SOUTHEAST COLORADO...

CITY           SKY/WX    TMP DP  RH WIND       PRES   REMARKS
PUEBLO         PTSUNNY   94  42  16 E17       30.00F
LA JUNTA       MOSUNNY   96  42  15 E16       29.97F
LAMAR          MOSUNNY   97  43  15 E17G24    29.93F
SPRINGFIELD      N/A     91  51  25 E16       30.00F
$$




USA.gov is the U.S. government's official web portal to all federal, state and local government web resources and services.